| time (UTC) | temp F | wind direction | speed MPH | gust MPH | rain 1hr in | rain 24hr in | rain mn in | humidity % | barometer mb |
| 20260503211545 | 53 | 324 | 0.0 | 0.0 | 0.00 | 0.20 | 0.20 | 41 | 1005.8 |
| 20260503211040 | 53 | 346 | 0.0 | 0.0 | 0.00 | 0.20 | 0.20 | 39 | 1005.9 |
| 20260503210537 | 54 | 50 | 0.0 | 0.0 | 0.00 | 0.20 | 0.20 | 39 | 1005.7 |
| 20260503210032 | 54 | 310 | 0.0 | 0.0 | 0.00 | 0.20 | 0.20 | 39 | 1005.6 |
| 20260503205529 | 54 | 262 | 0.0 | 0.0 | 0.00 | 0.20 | 0.20 | 40 | 1005.5 |
| 20260503205026 | 53 | 323 | 0.0 | 0.0 | 0.00 | 0.20 | 0.20 | 41 | 1005.6 |
| 20260503204523 | 53 | 312 | 0.0 | 0.0 | 0.00 | 0.20 | 0.20 | 41 | 1005.5 |
| 20260503204020 | 53 | 298 | 0.0 | 0.0 | 0.00 | 0.20 | 0.20 | 44 | 1005.6 |
| 20260503203517 | 53 | 346 | 0.0 | 0.0 | 0.00 | 0.20 | 0.20 | 44 | 1005.4 |
| 20260503203014 | 53 | 312 | 0.0 | 0.0 | 0.00 | 0.20 | 0.20 | 43 | 1005.4 |
| 20260503202512 | 53 | 321 | 0.0 | 0.0 | 0.00 | 0.20 | 0.20 | 43 | 1005.4 |
| 20260503202010 | 53 | 303 | 0.0 | 0.0 | 0.00 | 0.20 | 0.20 | 43 | 1005.5 |
| 20260503201508 | 53 | 165 | 0.0 | 0.0 | 0.00 | 0.20 | 0.20 | 43 | 1005.4 |
| 20260503201005 | 54 | 292 | 0.0 | 0.0 | 0.00 | 0.20 | 0.20 | 42 | 1005.0 |
| 20260503200500 | 54 | 332 | 0.0 | 0.0 | 0.00 | 0.20 | 0.20 | 43 | 1005.2 |
| 20260503195957 | 55 | 23 | 0.0 | 0.0 | 0.00 | 0.20 | 0.20 | 41 | 1005.1 |
| 20260503195454 | 56 | 302 | 0.0 | 0.0 | 0.00 | 0.20 | 0.20 | 41 | 1005.2 |
| 20260503194951 | 55 | 335 | 0.0 | 0.0 | 0.00 | 0.20 | 0.20 | 42 | 1005.0 |
| 20260503194448 | 55 | 302 | 0.0 | 0.0 | 0.00 | 0.20 | 0.20 | 42 | 1005.1 |
| 20260503193943 | 55 | 316 | 0.0 | 0.0 | 0.00 | 0.20 | 0.20 | 41 | 1005.1 |
| 20260503193439 | 54 | 312 | 0.0 | 1.0 | 0.00 | 0.20 | 0.20 | 40 | 1005.1 |
| 20260503192935 | 54 | 340 | 0.0 | 0.0 | 0.00 | 0.20 | 0.20 | 44 | 1004.8 |
| 20260503192432 | 54 | 344 | 0.0 | 0.0 | 0.00 | 0.20 | 0.20 | 43 | 1004.9 |
| 20260503191927 | 55 | 6 | 0.0 | 0.0 | 0.00 | 0.20 | 0.20 | 42 | 1004.9 |
| 20260503191425 | 55 | 315 | 0.0 | 0.0 | 0.00 | 0.20 | 0.20 | 43 | 1005.0 |
| 20260503190921 | 56 | 332 | 0.0 | 0.0 | 0.00 | 0.20 | 0.20 | 42 | 1005.1 |
| 20260503190419 | 55 | 356 | 0.0 | 0.0 | 0.00 | 0.20 | 0.20 | 42 | 1004.9 |
| 20260503185915 | 55 | 273 | 0.0 | 0.0 | 0.00 | 0.20 | 0.20 | 42 | 1005.3 |
| 20260503185412 | 54 | 280 | 0.0 | 0.0 | 0.00 | 0.20 | 0.20 | 42 | 1005.4 |
| 20260503184911 | 54 | 25 | 0.0 | 0.0 | 0.00 | 0.20 | 0.20 | 42 | 1005.3 |
| 20260503184408 | 53 | 27 | 0.0 | 0.0 | 0.00 | 0.20 | 0.20 | 45 | 1005.4 |
| 20260503183904 | 53 | 311 | 0.0 | 0.0 | 0.00 | 0.20 | 0.20 | 46 | 1005.6 |
| 20260503183401 | 53 | 304 | 0.0 | 0.0 | 0.00 | 0.20 | 0.20 | 46 | 1005.3 |
| 20260503182858 | 53 | 317 | 0.0 | 0.0 | 0.00 | 0.20 | 0.20 | 45 | 1005.4 |
| 20260503182357 | 52 | 17 | 0.0 | 0.0 | 0.00 | 0.20 | 0.20 | 47 | 1005.4 |
| 20260503181853 | 52 | 202 | 1.0 | 3.0 | 0.00 | 0.20 | 0.20 | 47 | 1005.4 |
| 20260503181351 | 52 | 353 | 0.0 | 1.0 | 0.00 | 0.20 | 0.20 | 49 | 1005.5 |
| 20260503180847 | 52 | 321 | 0.0 | 2.0 | 0.00 | 0.20 | 0.20 | 48 | 1005.4 |
| 20260503180345 | 53 | 8 | 0.0 | 3.0 | 0.00 | 0.20 | 0.20 | 50 | 1005.2 |
| 20260503175841 | 54 | 222 | 0.0 | 0.0 | 0.00 | 0.20 | 0.20 | 49 | 1005.2 |
| 20260503175339 | 53 | 230 | 0.0 | 0.0 | 0.00 | 0.20 | 0.20 | 54 | 1005.2 |
| 20260503174835 | 51 | 121 | 0.0 | 0.0 | 0.00 | 0.20 | 0.20 | 54 | 1005.0 |
| 20260503174333 | 52 | 282 | 0.0 | 2.0 | 0.00 | 0.20 | 0.20 | 57 | 1005.1 |
| 20260503173828 | 52 | 286 | 0.0 | 0.0 | 0.00 | 0.20 | 0.20 | 61 | 1005.2 |
| 20260503173325 | 53 | 38 | 0.0 | 0.0 | 0.00 | 0.20 | 0.20 | 59 | 1005.3 |
| 20260503172822 | 53 | 41 | 0.0 | 2.0 | 0.00 | 0.20 | 0.20 | 58 | 1005.0 |
| 20260503172320 | 54 | 335 | 0.0 | 2.0 | 0.00 | 0.20 | 0.20 | 57 | 1005.0 |
| 20260503171815 | 54 | 5 | 0.0 | 0.0 | 0.00 | 0.20 | 0.20 | 59 | 1004.8 |
| 20260503171312 | 53 | 347 | 0.0 | 0.0 | 0.00 | 0.20 | 0.20 | 62 | 1005.0 |
| 20260503170810 | 53 | 92 | 0.0 | 0.0 | 0.00 | 0.20 | 0.20 | 62 | 1004.9 |
| 20260503170306 | 53 | 332 | 0.0 | 0.0 | 0.00 | 0.20 | 0.20 | 59 | 1004.8 |
| 20260503150658 | 52 | 312 | 0.0 | 0.0 | 0.00 | 0.20 | 0.20 | 57 | 1004.2 |
| 20260503150154 | 54 | 56 | 1.0 | 7.0 | 0.00 | 0.20 | 0.20 | 51 | 1004.0 |
| 20260503140119 | 52 | 48 | 0.0 | 0.0 | 0.00 | 0.20 | 0.20 | 58 | 1003.9 |
| 20260503131048 | 50 | 308 | 0.0 | 1.0 | 0.00 | 0.20 | 0.20 | 69 | 1004.2 |
| 20260503130545 | 49 | 12 | 0.0 | 0.0 | 0.00 | 0.20 | 0.20 | 71 | 1004.3 |
| 20260503110436 | 45 | 334 | 0.0 | 0.0 | 0.00 | 0.20 | 0.20 | 92 | 1005.3 |
| 20260503090327 | 45 | 354 | 0.0 | 0.0 | 0.07 | 0.20 | 0.20 | 90 | 1005.2 |
| 20260503081254 | 46 | 289 | 0.0 | 0.0 | 0.07 | 0.19 | 0.19 | 88 | 1006.1 |
| 20260503080750 | 46 | 351 | 0.0 | 0.0 | 0.00 | 0.18 | 0.18 | 90 | 1006.4 |
| 20260503080248 | 46 | 349 | 0.0 | 0.0 | 0.00 | 0.18 | 0.18 | 90 | 1006.5 |
| 20260503072724 | 47 | 339 | 3.0 | 7.0 | 0.05 | 0.18 | 0.18 | 93 | 1006.7 |
| 20260503072221 | 48 | 272 | 0.0 | 0.0 | 0.05 | 0.18 | 0.18 | 96 | 1006.6 |
| 20260503071717 | 48 | 318 | 0.0 | 0.0 | 0.00 | 0.17 | 0.17 | 97 | 1006.7 |
| 20260503071215 | 48 | 292 | 0.0 | 0.0 | 0.00 | 0.17 | 0.17 | 97 | 1006.5 |
| 20260503070711 | 48 | 325 | 0.0 | 0.0 | 0.00 | 0.17 | 0.17 | 97 | 1006.7 |
| 20260503070209 | 48 | 324 | 0.0 | 0.0 | 0.00 | 0.17 | 0.17 | 97 | 1006.6 |
| 20260503060133 | 48 | 16 | 0.0 | 0.0 | 0.05 | 0.10 | 0.10 | 97 | 1007.4 |
| 20260503055125 | 48 | 281 | 0.0 | 0.0 | 0.07 | 0.09 | 0.09 | 97 | 1007.6 |
| 20260503054621 | 48 | 313 | 0.0 | 0.0 | 0.12 | 0.09 | 0.09 | 98 | 1007.8 |
| 20260503054118 | 48 | 312 | 0.0 | 0.0 | 0.05 | 0.08 | 0.08 | 98 | 1007.7 |
| 20260503053616 | 48 | 331 | 0.0 | 0.0 | 0.07 | 0.07 | 0.07 | 98 | 1007.9 |
| 20260503053114 | 48 | 312 | 0.0 | 0.0 | 0.07 | 0.07 | 0.07 | 97 | 1008.1 |
| 20260503052610 | 48 | 336 | 0.0 | 0.0 | 0.07 | 0.06 | 0.06 | 97 | 1008.0 |
| 20260503052107 | 48 | 316 | 0.0 | 0.0 | 0.07 | 0.06 | 0.06 | 97 | 1008.0 |
| 20260503051602 | 48 | 317 | 0.0 | 0.0 | 0.05 | 0.05 | 0.05 | 97 | 1007.9 |
| 20260503051100 | 48 | 328 | 0.0 | 0.0 | 0.05 | 0.05 | 0.05 | 97 | 1008.0 |
| 20260503050555 | 48 | 314 | 0.0 | 0.0 | 0.00 | 0.04 | 0.04 | 97 | 1008.2 |
| 20260503050053 | 48 | 312 | 0.0 | 0.0 | 0.07 | 0.04 | 0.04 | 97 | 1008.4 |
| 20260503045550 | 48 | 312 | 0.0 | 0.0 | 0.07 | 0.04 | 0.04 | 97 | 1008.3 |
| 20260503045047 | 48 | 314 | 0.0 | 0.0 | 0.00 | 0.03 | 0.03 | 97 | 1008.4 |
| 20260503044544 | 48 | 312 | 0.0 | 0.0 | 0.00 | 0.03 | 0.03 | 97 | 1008.6 |
| 20260503044042 | 48 | 305 | 0.0 | 0.0 | 0.05 | 0.03 | 0.03 | 97 | 1009.0 |
| 20260503043537 | 48 | 293 | 0.0 | 0.0 | 0.05 | 0.03 | 0.03 | 97 | 1008.8 |
| 20260503043034 | 48 | 308 | 0.0 | 0.0 | 0.07 | 0.02 | 0.02 | 97 | 1008.7 |
| 20260503042531 | 48 | 316 | 0.0 | 0.0 | 0.07 | 0.02 | 0.02 | 97 | 1008.8 |
| 20260503042027 | 48 | 311 | 0.0 | 0.0 | 0.05 | 0.01 | 0.01 | 97 | 1008.9 |
| 20260503041524 | 48 | 313 | 0.0 | 0.0 | 0.05 | 0.01 | 0.01 | 97 | 1008.9 |
| 20260503041022 | 48 | 310 | 0.0 | 0.0 | 0.05 | 0.01 | 0.01 | 97 | 1008.9 |
| 20260503040519 | 48 | 310 | 0.0 | 0.0 | 0.07 | 0.00 | 0.00 | 97 | 1009.0 |
| 20260503040016 | 48 | 308 | 0.0 | 0.0 | 0.12 | 0.38 | 0.38 | 97 | 1009.0 |
| 20260503035513 | 48 | 314 | 0.0 | 0.0 | 0.12 | 0.37 | 0.37 | 97 | 1008.8 |
| 20260503035011 | 48 | 316 | 0.0 | 0.0 | 0.07 | 0.36 | 0.36 | 97 | 1009.2 |
| 20260503034508 | 48 | 312 | 0.0 | 0.0 | 0.05 | 0.35 | 0.35 | 97 | 1009.1 |
| 20260503034005 | 48 | 313 | 0.0 | 0.0 | 0.05 | 0.35 | 0.35 | 97 | 1009.0 |
| 20260503033502 | 49 | 309 | 0.0 | 0.0 | 0.07 | 0.34 | 0.34 | 97 | 1008.9 |
| 20260503033000 | 49 | 316 | 0.0 | 0.0 | 0.07 | 0.34 | 0.34 | 97 | 1009.0 |
| 20260503032458 | 49 | 316 | 0.0 | 0.0 | 0.05 | 0.33 | 0.33 | 97 | 1009.0 |
| 20260503031956 | 49 | 314 | 0.0 | 0.0 | 0.12 | 0.33 | 0.33 | 97 | 1009.1 |
| 20260503031453 | 49 | 312 | 0.0 | 0.0 | 0.14 | 0.32 | 0.32 | 97 | 1009.1 |
| 20260503030949 | 49 | 312 | 0.0 | 0.0 | 0.12 | 0.31 | 0.31 | 97 | 1009.2 |
| 20260503030446 | 49 | 313 | 0.0 | 0.0 | 0.12 | 0.31 | 0.31 | 97 | 1009.3 |
| 20260503025943 | 49 | 310 | 0.0 | 0.0 | 0.07 | 0.29 | 0.29 | 97 | 1009.2 |
| 20260503025440 | 49 | 303 | 0.0 | 0.0 | 0.12 | 0.29 | 0.29 | 97 | 1009.1 |
| 20260503024938 | 49 | 301 | 0.0 | 0.0 | 0.05 | 0.28 | 0.28 | 97 | 1009.2 |
| 20260503024434 | 49 | 318 | 0.0 | 0.0 | 0.07 | 0.27 | 0.27 | 97 | 1009.3 |
| 20260503023931 | 49 | 314 | 0.0 | 0.0 | 0.07 | 0.27 | 0.27 | 97 | 1009.2 |
| 20260503023428 | 49 | 311 | 0.0 | 0.0 | 0.00 | 0.26 | 0.26 | 97 | 1009.3 |
| 20260503022925 | 49 | 311 | 0.0 | 0.0 | 0.05 | 0.26 | 0.26 | 96 | 1009.4 |
| 20260503022420 | 49 | 322 | 0.0 | 0.0 | 0.05 | 0.26 | 0.26 | 96 | 1009.7 |
| 20260503021916 | 49 | 313 | 0.0 | 0.0 | 0.00 | 0.25 | 0.25 | 96 | 1009.8 |
| 20260503021412 | 48 | 314 | 0.0 | 0.0 | 0.07 | 0.25 | 0.25 | 96 | 1009.7 |
| 20260503020910 | 49 | 306 | 0.0 | 0.0 | 0.12 | 0.25 | 0.25 | 96 | 1009.9 |
| 20260503020408 | 49 | 311 | 0.0 | 0.0 | 0.05 | 0.24 | 0.24 | 96 | 1009.7 |
| 20260503015903 | 49 | 311 | 0.0 | 0.0 | 0.07 | 0.23 | 0.23 | 96 | 1010.0 |
| 20260503015401 | 49 | 311 | 0.0 | 0.0 | 0.12 | 0.23 | 0.23 | 96 | 1010.3 |
| 20260503014856 | 49 | 314 | 0.0 | 0.0 | 0.12 | 0.22 | 0.22 | 96 | 1010.0 |
| 20260503014354 | 49 | 311 | 0.0 | 0.0 | 0.14 | 0.21 | 0.21 | 96 | 1010.4 |
| 20260503013852 | 49 | 312 | 0.0 | 0.0 | 0.19 | 0.20 | 0.20 | 96 | 1010.1 |
| 20260503013348 | 49 | 310 | 0.0 | 0.0 | 0.24 | 0.19 | 0.19 | 96 | 1010.3 |
| 20260503012845 | 49 | 311 | 0.0 | 0.0 | 0.17 | 0.17 | 0.17 | 96 | 1010.2 |
| 20260503012343 | 49 | 312 | 0.0 | 0.0 | 0.12 | 0.15 | 0.15 | 96 | 1010.1 |
| 20260503011840 | 49 | 310 | 0.0 | 0.0 | 0.12 | 0.14 | 0.14 | 96 | 1010.1 |
| 20260503011337 | 49 | 313 | 0.0 | 0.0 | 0.12 | 0.13 | 0.13 | 96 | 1010.0 |
| 20260503010833 | 49 | 319 | 0.0 | 0.0 | 0.12 | 0.12 | 0.12 | 96 | 1010.1 |
| 20260503010331 | 49 | 311 | 0.0 | 0.0 | 0.05 | 0.11 | 0.11 | 96 | 1010.3 |
| 20260503005827 | 49 | 311 | 0.0 | 0.0 | 0.07 | 0.10 | 0.10 | 96 | 1010.3 |
| 20260503005325 | 49 | 311 | 0.0 | 0.0 | 0.12 | 0.10 | 0.10 | 96 | 1010.0 |
| 20260503004821 | 49 | 314 | 0.0 | 0.0 | 0.12 | 0.09 | 0.09 | 95 | 1010.3 |
| 20260503004319 | 49 | 314 | 0.0 | 0.0 | 0.14 | 0.08 | 0.08 | 95 | 1010.1 |
| 20260503003816 | 49 | 323 | 0.0 | 0.0 | 0.07 | 0.07 | 0.07 | 95 | 1010.1 |
| 20260503003313 | 49 | 304 | 0.0 | 0.0 | 0.05 | 0.06 | 0.06 | 95 | 1010.2 |
| 20260503002809 | 49 | 314 | 0.0 | 0.0 | 0.05 | 0.06 | 0.06 | 95 | 1010.3 |
| 20260503002307 | 49 | 307 | 0.0 | 0.0 | 0.00 | 0.05 | 0.05 | 95 | 1010.5 |
| 20260503001803 | 49 | 314 | 0.0 | 0.0 | 0.00 | 0.05 | 0.05 | 95 | 1010.2 |
| 20260503001259 | 49 | 304 | 0.0 | 0.0 | 0.00 | 0.05 | 0.05 | 95 | 1010.2 |
| 20260503000757 | 49 | 311 | 0.0 | 0.0 | 0.07 | 0.05 | 0.05 | 95 | 1010.1 |
| 20260503000254 | 49 | 312 | 0.0 | 0.0 | 0.07 | 0.05 | 0.05 | 94 | 1010.3 |
| 20260502235751 | 49 | 316 | 0.0 | 0.0 | 0.00 | 0.04 | 0.04 | 94 | 1010.2 |
| 20260502235249 | 49 | 304 | 0.0 | 0.0 | 0.00 | 0.04 | 0.04 | 94 | 1010.4 |
| 20260502234745 | 49 | 314 | 0.0 | 0.0 | 0.05 | 0.04 | 0.04 | 94 | 1010.2 |
| 20260502234242 | 49 | 311 | 0.0 | 0.0 | 0.05 | 0.04 | 0.04 | 93 | 1010.2 |
| 20260502233738 | 49 | 314 | 0.0 | 0.0 | 0.07 | 0.03 | 0.03 | 93 | 1010.0 |
| 20260502233235 | 49 | 314 | 0.0 | 0.0 | 0.07 | 0.03 | 0.03 | 92 | 1010.1 |
| 20260502232730 | 49 | 314 | 0.0 | 0.0 | 0.00 | 0.02 | 0.02 | 92 | 1010.1 |
| 20260502232228 | 49 | 314 | 0.0 | 0.0 | 0.05 | 0.02 | 0.02 | 91 | 1010.2 |
| 20260502231725 | 50 | 314 | 0.0 | 0.0 | 0.12 | 0.02 | 0.02 | 90 | 1010.0 |
| 20260502231222 | 50 | 315 | 0.0 | 0.0 | 0.07 | 0.01 | 0.01 | 90 | 1010.5 |
| 20260502230721 | 50 | 332 | 0.0 | 0.0 | 0.00 | 0.00 | 0.00 | 86 | 1010.2 |
| 20260502230219 | 50 | 312 | 0.0 | 0.0 | 0.00 | 0.00 | 0.00 | 85 | 1010.4 |
| 20260502225714 | 51 | 311 | 0.0 | 0.0 | 0.00 | 0.00 | 0.00 | 83 | 1010.3 |
| 20260502225212 | 51 | 310 | 0.0 | 0.0 | 0.00 | 0.00 | 0.00 | 81 | 1010.2 |
| 20260502224708 | 51 | 309 | 0.0 | 0.0 | 0.00 | 0.00 | 0.00 | 80 | 1010.0 |
| 20260502224205 | 51 | 307 | 0.0 | 0.0 | 0.00 | 0.00 | 0.00 | 80 | 1010.0 |
| 20260502223702 | 51 | 311 | 0.0 | 0.0 | 0.00 | 0.00 | 0.00 | 80 | 1010.0 |
| 20260502223200 | 51 | 316 | 0.0 | 0.0 | 0.00 | 0.00 | 0.00 | 80 | 1009.8 |
| 20260502222658 | 51 | 305 | 0.0 | 0.0 | 0.00 | 0.00 | 0.00 | 79 | 1010.2 |
| 20260502222154 | 51 | 312 | 0.0 | 0.0 | 0.00 | 0.00 | 0.00 | 79 | 1010.0 |
| 20260502221650 | 51 | 310 | 0.0 | 0.0 | 0.00 | 0.00 | 0.00 | 79 | 1010.1 |
| 20260502221147 | 52 | 188 | 0.0 | 0.0 | 0.00 | 0.00 | 0.00 | 78 | 1010.0 |
| 20260502220643 | 52 | 313 | 0.0 | 0.0 | 0.00 | 0.00 | 0.00 | 78 | 1010.0 |
| 20260502220139 | 52 | 304 | 0.0 | 0.0 | 0.00 | 0.00 | 0.00 | 77 | 1009.9 |
| 20260502215637 | 52 | 294 | 0.0 | 0.0 | 0.00 | 0.00 | 0.00 | 77 | 1010.0 |
| 20260502215133 | 52 | 308 | 0.0 | 0.0 | 0.00 | 0.00 | 0.00 | 76 | 1010.1 |
| 20260502214631 | 52 | 291 | 0.0 | 0.0 | 0.00 | 0.00 | 0.00 | 75 | 1010.2 |
| 20260502214128 | 52 | 309 | 0.0 | 0.0 | 0.00 | 0.00 | 0.00 | 75 | 1010.4 |
| 20260502213625 | 53 | 312 | 0.0 | 0.0 | 0.00 | 0.00 | 0.00 | 76 | 1010.4 |
| 20260502213122 | 53 | 234 | 0.0 | 0.0 | 0.00 | 0.00 | 0.00 | 75 | 1010.0 |
| 20260502212621 | 53 | 299 | 0.0 | 0.0 | 0.00 | 0.00 | 0.00 | 75 | 1009.9 |
| 20260502212119 | 53 | 314 | 0.0 | 0.0 | 0.00 | 0.00 | 0.00 | 75 | 1010.1 |
| 20260502211614 | 53 | 210 | 0.0 | 0.0 | 0.00 | 0.00 | 0.00 | 75 | 1010.2 |